CCA2188 ZSQD-ZJSY

Flight info

Callsign CCA2188
Flight time N/A
Altitude 36100
Route LATUX W108 MATNU W115 PINOT W13 BEGMO W117 DST B221 LJG A470 BEBEM R200 BIGRO G221 GIVIV WL
Aircraft A359/H-SDE2E3GHIJ3J4J5LM1ORWXY/LB1D1

Departure

Time 2026-04-30 11:53
Airport Qingdao Jiaodong International Airport (ZSQD)

Arrival

Time N/A
Airport Sanya Phoenix International Airport (ZJSY)
Time Latitude Longitude Altitude Speed Heading
2026-04-30 11:37 36.37076 120.07664 33 ft 0 kts 342°
2026-04-30 11:51 36.37078 120.07664 33 ft 3 kts 342°
2026-04-30 11:51 36.37128 120.07632 33 ft 9 kts 312°
2026-04-30 11:51 36.37131 120.07564 33 ft 9 kts 253°
2026-04-30 11:51 36.37108 120.07472 33 ft 12 kts 253°
2026-04-30 11:52 36.37078 120.07355 33 ft 14 kts 251°
2026-04-30 11:52 36.37049 120.07253 33 ft 10 kts 241°
2026-04-30 11:52 36.36977 120.07218 33 ft 13 kts 169°
2026-04-30 11:52 36.36815 120.07281 33 ft 51 kts 162°
2026-04-30 11:53 36.36200 120.07519 37 ft 130 kts 162°
2026-04-30 11:53 36.35120 120.07941 175 ft 183 kts 162°
2026-04-30 11:53 36.33888 120.08421 934 ft 191 kts 164°
2026-04-30 11:53 36.32580 120.08933 1685 ft 207 kts 165°
2026-04-30 11:54 36.31172 120.09481 2316 ft 219 kts 165°
2026-04-30 11:54 36.29698 120.10244 2778 ft 238 kts 150°
2026-04-30 11:54 36.28274 120.11431 3335 ft 253 kts 144°
2026-04-30 11:54 36.26824 120.12745 4049 ft 261 kts 144°
2026-04-30 11:55 36.25346 120.14073 4879 ft 264 kts 144°
2026-04-30 11:55 36.23820 120.15414 5716 ft 267 kts 144°
2026-04-30 11:55 36.22293 120.16730 6537 ft 269 kts 144°
2026-04-30 11:55 36.20755 120.18043 7310 ft 273 kts 145°
2026-04-30 11:56 36.19184 120.19376 8117 ft 276 kts 145°
2026-04-30 11:56 36.17556 120.20750 8905 ft 280 kts 145°
2026-04-30 11:56 36.15931 120.22119 9645 ft 285 kts 145°
2026-04-30 11:56 36.14264 120.23519 10375 ft 289 kts 145°
2026-04-30 11:57 36.12540 120.24962 10964 ft 300 kts 144°
2026-04-30 11:57 36.10763 120.26450 11381 ft 316 kts 144°
2026-04-30 11:57 36.08892 120.28017 11797 ft 332 kts 144°
2026-04-30 11:57 36.06929 120.29659 12184 ft 348 kts 144°
2026-04-30 11:58 36.04857 120.31395 12569 ft 365 kts 144°
2026-04-30 11:58 36.02707 120.33194 12902 ft 381 kts 144°
2026-04-30 11:58 36.00456 120.35071 13216 ft 397 kts 144°
2026-04-30 11:58 35.98129 120.37012 13510 ft 412 kts 143°
2026-04-30 11:59 35.95673 120.39063 13876 ft 425 kts 143°
2026-04-30 11:59 35.93191 120.41128 14454 ft 431 kts 143°
2026-04-30 11:59 35.90688 120.43210 15075 ft 435 kts 143°
2026-04-30 11:59 35.88161 120.45309 15642 ft 440 kts 143°
2026-04-30 12:00 35.85612 120.47415 16203 ft 444 kts 143°
2026-04-30 12:00 35.82984 120.49590 16761 ft 448 kts 143°
2026-04-30 12:00 35.80395 120.51735 17318 ft 452 kts 143°
2026-04-30 12:00 35.77755 120.53922 17807 ft 457 kts 143°
2026-04-30 12:01 35.75085 120.56135 18333 ft 462 kts 143°
2026-04-30 12:01 35.72411 120.58352 18870 ft 465 kts 143°
2026-04-30 12:01 35.69722 120.60578 19351 ft 469 kts 143°
2026-04-30 12:01 35.66970 120.62854 19833 ft 474 kts 143°
2026-04-30 12:02 35.64201 120.65145 20344 ft 477 kts 143°
2026-04-30 12:02 35.61429 120.67446 20836 ft 480 kts 143°
2026-04-30 12:02 35.58649 120.69762 21276 ft 485 kts 143°
2026-04-30 12:02 35.55827 120.72100 21701 ft 489 kts 143°
2026-04-30 12:03 35.52966 120.74461 22146 ft 493 kts 143°
2026-04-30 12:03 35.47004 120.78790 22978 ft 502 kts 151°
2026-04-30 12:03 35.43802 120.80585 23379 ft 507 kts 155°
2026-04-30 12:04 35.40525 120.82220 23776 ft 511 kts 156°
2026-04-30 12:04 35.37152 120.83870 24162 ft 514 kts 156°
2026-04-30 12:04 35.33844 120.85487 24536 ft 517 kts 156°
2026-04-30 12:04 35.30500 120.87128 24873 ft 520 kts 156°
2026-04-30 12:05 35.27097 120.88801 25183 ft 523 kts 156°
2026-04-30 12:05 35.23711 120.90476 25492 ft 526 kts 156°
2026-04-30 12:05 35.20292 120.92164 25833 ft 529 kts 156°
2026-04-30 12:05 35.16880 120.93848 26147 ft 531 kts 156°
2026-04-30 12:06 35.13453 120.95539 26416 ft 535 kts 156°
2026-04-30 12:06 35.09956 120.97272 26675 ft 538 kts 157°
2026-04-30 12:06 35.06479 120.98995 26978 ft 540 kts 157°
2026-04-30 12:06 35.02988 121.00729 27270 ft 541 kts 157°
2026-04-30 12:07 34.99488 121.02464 27485 ft 544 kts 157°
2026-04-30 12:07 34.95931 121.04224 27681 ft 547 kts 157°
2026-04-30 12:07 34.92381 121.05982 27864 ft 550 kts 157°
2026-04-30 12:07 34.88818 121.07746 28131 ft 551 kts 158°
2026-04-30 12:08 34.85265 121.09493 28346 ft 553 kts 158°
2026-04-30 12:08 34.81685 121.11252 28527 ft 555 kts 158°
2026-04-30 12:08 34.78052 121.13034 28733 ft 557 kts 158°
2026-04-30 12:08 34.74468 121.14796 28962 ft 558 kts 158°
2026-04-30 12:09 34.70869 121.16564 29289 ft 557 kts 158°
2026-04-30 12:09 34.67247 121.18346 29646 ft 555 kts 158°
2026-04-30 12:09 34.63682 121.20099 29922 ft 555 kts 159°
2026-04-30 12:09 34.60099 121.21861 30177 ft 554 kts 159°
2026-04-30 12:10 34.56516 121.23617 30490 ft 553 kts 159°
2026-04-30 12:10 34.52970 121.25354 30778 ft 552 kts 159°
2026-04-30 12:10 34.49383 121.27111 30988 ft 552 kts 159°
2026-04-30 12:10 34.45795 121.28867 31207 ft 552 kts 160°
2026-04-30 12:11 34.42247 121.30601 31489 ft 550 kts 160°
2026-04-30 12:11 34.38689 121.32339 31793 ft 548 kts 160°
2026-04-30 12:11 34.35107 121.34087 32113 ft 546 kts 160°
2026-04-30 12:11 34.31594 121.35799 32384 ft 544 kts 160°
2026-04-30 12:12 34.28037 121.37531 32648 ft 543 kts 160°
2026-04-30 12:12 34.24514 121.39246 32941 ft 541 kts 161°
2026-04-30 12:12 34.21009 121.40951 33216 ft 539 kts 161°
2026-04-30 12:12 34.17556 121.42628 33524 ft 537 kts 161°
2026-04-30 12:13 34.14068 121.44318 33802 ft 535 kts 161°
2026-04-30 12:13 34.10621 121.45988 34028 ft 534 kts 161°
2026-04-30 12:13 34.07110 121.47687 34326 ft 532 kts 161°
2026-04-30 12:13 34.03669 121.49352 34458 ft 532 kts 161°
2026-04-30 12:14 34.00173 121.51042 34630 ft 533 kts 161°
2026-04-30 12:14 33.96696 121.52721 34794 ft 534 kts 161°
2026-04-30 12:14 33.93210 121.54404 35032 ft 534 kts 161°
2026-04-30 12:14 33.89765 121.56068 35249 ft 535 kts 162°
2026-04-30 12:15 33.86305 121.57733 35413 ft 535 kts 162°
2026-04-30 12:15 33.79292 121.61105 35590 ft 536 kts 162°
2026-04-30 12:16 33.72343 121.64448 35822 ft 536 kts 162°
2026-04-30 12:16 33.68886 121.66122 35923 ft 537 kts 162°
2026-04-30 12:16 33.65414 121.67834 36007 ft 537 kts 162°
2026-04-30 12:17 33.55014 121.72957 36135 ft 538 kts 162°
2026-04-30 12:17 33.48020 121.76363 36142 ft 538 kts 163°
2026-04-30 12:18 33.41069 121.79745 36139 ft 536 kts 163°
2026-04-30 12:18 33.34122 121.83124 36153 ft 536 kts 163°
2026-04-30 12:19 33.27190 121.86490 36171 ft 537 kts 163°
2026-04-30 12:19 33.20271 121.89850 36173 ft 536 kts 163°
2026-04-30 12:20 33.13323 121.93215 36181 ft 534 kts 163°
2026-04-30 12:20 33.06420 121.96553 36180 ft 533 kts 163°
2026-04-30 12:21 32.99549 121.99871 36094 ft 532 kts 164°
2026-04-30 12:21 32.92648 122.03198 36211 ft 532 kts 164°
2026-04-30 12:22 32.85717 122.06525 36166 ft 533 kts 164°
2026-04-30 12:22 32.78829 122.09826 36164 ft 532 kts 165°
2026-04-30 12:23 32.71884 122.13150 36164 ft 531 kts 165°
2026-04-30 12:23 32.65037 122.16429 36163 ft 529 kts 165°
2026-04-30 12:24 32.58161 122.19714 36173 ft 529 kts 165°
2026-04-30 12:24 32.51328 122.22975 36172 ft 528 kts 165°
2026-04-30 12:25 32.44443 122.26253 36173 ft 529 kts 166°
2026-04-30 12:25 32.37608 122.29507 36175 ft 526 kts 166°
2026-04-30 12:26 32.30777 122.32748 36173 ft 527 kts 166°
2026-04-30 12:26 32.23994 122.35963 36179 ft 526 kts 166°
2026-04-30 12:27 32.17182 122.39191 36177 ft 523 kts 166°
2026-04-30 12:27 32.10397 122.42398 36178 ft 524 kts 166°
2026-04-30 12:28 32.03574 122.45618 36186 ft 523 kts 167°
2026-04-30 12:28 31.96790 122.48818 36188 ft 522 kts 167°
2026-04-30 12:29 31.90050 122.51994 36194 ft 520 kts 167°
2026-04-30 12:29 31.83245 122.55190 36184 ft 520 kts 167°
2026-04-30 12:30 31.76522 122.58323 36174 ft 516 kts 170°
2026-04-30 12:30 31.73109 122.59393 36182 ft 499 kts 180°
2026-04-30 12:30 31.69660 122.59785 36178 ft 484 kts 189°
2026-04-30 12:31 31.66316 122.59539 36182 ft 472 kts 198°
2026-04-30 12:31 31.63167 122.58736 36184 ft 461 kts 206°
2026-04-30 12:31 31.60176 122.57414 36177 ft 450 kts 213°
2026-04-30 12:31 31.57466 122.55661 36177 ft 440 kts 220°
2026-04-30 12:32 31.52400 122.51567 36185 ft 442 kts 219°
2026-04-30 12:32 31.46871 122.48175 36192 ft 451 kts 212°
2026-04-30 12:33 31.40852 122.45750 36184 ft 462 kts 204°
2026-04-30 12:33 31.34407 122.44417 36187 ft 476 kts 195°
2026-04-30 12:34 31.27757 122.43938 36205 ft 476 kts 193°
2026-04-30 12:34 31.21097 122.43564 36194 ft 476 kts 193°
2026-04-30 12:35 31.14409 122.43195 36194 ft 475 kts 193°
2026-04-30 12:35 31.07788 122.42832 36200 ft 476 kts 193°
2026-04-30 12:36 31.01125 122.42466 36201 ft 473 kts 194°
2026-04-30 12:36 30.94545 122.42084 36204 ft 473 kts 194°
2026-04-30 12:37 30.87907 122.41696 36191 ft 474 kts 194°
2026-04-30 12:37 30.81302 122.41328 36198 ft 474 kts 194°
2026-04-30 12:38 30.74665 122.40958 36196 ft 474 kts 194°
2026-04-30 12:38 30.68006 122.40588 36188 ft 475 kts 194°
2026-04-30 12:39 30.61315 122.40217 36193 ft 475 kts 194°
2026-04-30 12:39 30.54683 122.39770 36181 ft 465 kts 200°
2026-04-30 12:40 30.51570 122.38940 36203 ft 449 kts 209°
2026-04-30 12:40 30.48701 122.37589 36199 ft 435 kts 217°
2026-04-30 12:40 30.43403 122.34152 36208 ft 431 kts 219°
2026-04-30 12:41 30.38141 122.30679 36198 ft 431 kts 219°
2026-04-30 12:41 30.32926 122.27250 36207 ft 430 kts 219°
2026-04-30 12:42 30.27697 122.23817 36206 ft 431 kts 219°
2026-04-30 12:42 30.22445 122.20374 36207 ft 431 kts 219°
2026-04-30 12:43 30.17194 122.16941 36212 ft 430 kts 220°
2026-04-30 12:43 30.11930 122.13504 36209 ft 432 kts 219°
2026-04-30 12:44 30.06698 122.10093 36216 ft 432 kts 220°
2026-04-30 12:44 30.01461 122.06679 36215 ft 432 kts 220°
2026-04-30 12:45 29.96169 122.03232 36211 ft 432 kts 220°
2026-04-30 12:45 29.90938 121.99833 36214 ft 431 kts 220°
2026-04-30 12:46 29.85657 121.96421 36212 ft 432 kts 220°
2026-04-30 12:46 29.80395 121.93028 36218 ft 433 kts 220°
2026-04-30 12:47 29.75138 121.89633 36213 ft 434 kts 220°
2026-04-30 12:47 29.69841 121.86215 36211 ft 433 kts 220°
2026-04-30 12:48 29.64553 121.82802 36207 ft 435 kts 220°
2026-04-30 12:48 29.59247 121.79380 36210 ft 435 kts 220°
2026-04-30 12:49 29.53970 121.75978 36219 ft 435 kts 220°
2026-04-30 12:49 29.48685 121.72575 36214 ft 433 kts 220°
2026-04-30 12:50 29.43391 121.69176 36214 ft 433 kts 220°
2026-04-30 12:50 29.38079 121.65767 36212 ft 436 kts 220°
2026-04-30 12:51 29.32766 121.62357 36219 ft 435 kts 220°
2026-04-30 12:51 29.27417 121.58930 36208 ft 437 kts 220°
2026-04-30 12:52 29.22075 121.55510 36218 ft 436 kts 220°
2026-04-30 12:52 29.16775 121.52125 36212 ft 435 kts 220°
2026-04-30 12:53 29.11455 121.48733 36215 ft 435 kts 220°
2026-04-30 12:53 29.06137 121.45342 36215 ft 436 kts 220°
2026-04-30 12:54 29.00806 121.41947 36213 ft 434 kts 220°
2026-04-30 12:54 28.95491 121.38568 36206 ft 436 kts 220°
2026-04-30 12:55 28.90135 121.35163 36209 ft 438 kts 220°
2026-04-30 12:55 28.84755 121.31744 36205 ft 438 kts 219°
2026-04-30 12:56 28.79371 121.28336 36211 ft 439 kts 218°
2026-04-30 12:56 28.74025 121.24949 36214 ft 440 kts 219°
2026-04-30 12:57 28.68648 121.21551 36210 ft 438 kts 219°
2026-04-30 12:57 28.63258 121.18147 36203 ft 441 kts 219°
2026-04-30 12:58 28.57840 121.14729 36205 ft 441 kts 219°
2026-04-30 12:58 28.52455 121.11337 36210 ft 443 kts 219°
2026-04-30 12:59 28.47022 121.07921 36206 ft 444 kts 218°
2026-04-30 12:59 28.41569 121.04495 36209 ft 444 kts 218°
2026-04-30 13:00 28.36137 121.01087 36209 ft 445 kts 218°
2026-04-30 13:00 28.30684 120.97670 36204 ft 446 kts 218°
2026-04-30 13:01 28.25205 120.94237 36209 ft 446 kts 218°
2026-04-30 13:01 28.19763 120.90836 36209 ft 447 kts 218°
2026-04-30 13:02 28.14229 120.87378 36210 ft 449 kts 218°
2026-04-30 13:02 28.08741 120.83955 36215 ft 449 kts 218°
2026-04-30 13:03 28.03250 120.80535 36212 ft 449 kts 217°
2026-04-30 13:03 27.97750 120.77114 36216 ft 449 kts 217°
2026-04-30 13:04 27.92233 120.73686 36213 ft 450 kts 217°
2026-04-30 13:04 27.86699 120.70264 36213 ft 451 kts 217°
2026-04-30 13:05 27.81146 120.66836 36212 ft 452 kts 217°
2026-04-30 13:06 27.72934 120.61545 36218 ft 448 kts 220°
2026-04-30 13:06 27.67612 120.57727 36213 ft 448 kts 220°
2026-04-30 13:07 27.62356 120.53971 36210 ft 449 kts 220°
2026-04-30 13:07 27.57031 120.50172 36215 ft 450 kts 220°
2026-04-30 13:08 27.51711 120.46378 36211 ft 451 kts 220°
2026-04-30 13:08 27.46371 120.42574 36210 ft 452 kts 220°
2026-04-30 13:09 27.41024 120.38773 36213 ft 452 kts 220°
2026-04-30 13:09 27.35696 120.34988 36210 ft 454 kts 219°
2026-04-30 13:10 27.30329 120.31167 36207 ft 453 kts 219°
2026-04-30 13:10 27.24977 120.27368 36208 ft 454 kts 219°
2026-04-30 13:11 27.19576 120.23557 36210 ft 456 kts 219°
2026-04-30 13:11 27.14184 120.19755 36209 ft 457 kts 219°
2026-04-30 13:12 27.08761 120.15909 36205 ft 459 kts 219°
2026-04-30 13:12 27.03339 120.12045 36205 ft 458 kts 219°
2026-04-30 13:13 26.95194 120.06265 36207 ft 460 kts 219°
2026-04-30 13:14 26.87000 120.00476 36208 ft 459 kts 219°
2026-04-30 13:14 26.78849 119.94733 36210 ft 460 kts 219°
2026-04-30 13:15 26.70668 119.88966 36210 ft 462 kts 218°
2026-04-30 13:16 26.65200 119.85116 36212 ft 463 kts 218°
2026-04-30 13:16 26.59731 119.81272 36212 ft 463 kts 218°
2026-04-30 13:17 26.51540 119.75521 36209 ft 464 kts 218°
2026-04-30 13:18 26.43275 119.69725 36212 ft 463 kts 218°
2026-04-30 13:18 26.35069 119.63971 36212 ft 464 kts 218°
2026-04-30 13:19 26.29572 119.60129 36211 ft 464 kts 217°
2026-04-30 13:19 26.23879 119.56584 36210 ft 469 kts 212°
2026-04-30 13:20 26.17848 119.53622 36213 ft 475 kts 207°
2026-04-30 13:20 26.11500 119.51253 36214 ft 478 kts 204°
2026-04-30 13:21 26.05064 119.49055 36209 ft 479 kts 204°
2026-04-30 13:22 25.95458 119.45783 36213 ft 479 kts 204°
2026-04-30 13:22 25.85835 119.42518 36207 ft 479 kts 203°
2026-04-30 13:23 25.76652 119.38184 36200 ft 470 kts 215°
2026-04-30 13:24 25.66342 119.29461 36198 ft 461 kts 230°
2026-04-30 13:25 25.57475 119.19076 36193 ft 461 kts 230°
2026-04-30 13:26 25.46372 119.06074 36193 ft 464 kts 230°
2026-04-30 13:28 25.35201 118.93034 36188 ft 465 kts 230°
2026-04-30 13:28 25.28626 118.85139 36183 ft 465 kts 231°
2026-04-30 13:29 25.19848 118.74500 36177 ft 466 kts 231°
2026-04-30 13:31 25.08826 118.61224 36173 ft 468 kts 231°
2026-04-30 13:32 24.97465 118.48183 36170 ft 468 kts 230°
2026-04-30 13:33 24.88382 118.37795 36169 ft 469 kts 230°
2026-04-30 13:34 24.81533 118.29993 36169 ft 470 kts 230°
2026-04-30 13:35 24.72430 118.19601 36166 ft 470 kts 230°
2026-04-30 13:36 24.63278 118.09192 36167 ft 471 kts 230°
2026-04-30 13:36 24.56403 118.01394 36167 ft 471 kts 230°
2026-04-30 13:37 24.49770 117.93408 36167 ft 471 kts 231°
2026-04-30 13:38 24.43143 117.85369 36164 ft 471 kts 231°
2026-04-30 13:39 24.34260 117.74661 36155 ft 471 kts 231°
2026-04-30 13:40 24.27606 117.66662 36161 ft 472 kts 231°
2026-04-30 13:40 24.23127 117.61286 36162 ft 472 kts 231°
2026-04-30 13:41 24.18671 117.55943 36166 ft 473 kts 231°
2026-04-30 13:41 24.14162 117.50642 36171 ft 474 kts 229°
2026-04-30 13:42 24.09314 117.45706 36174 ft 476 kts 226°
2026-04-30 13:42 24.01886 117.38419 36172 ft 476 kts 226°
2026-04-30 13:43 23.96930 117.33560 36168 ft 477 kts 225°
2026-04-30 13:43 23.91929 117.28642 36161 ft 477 kts 226°
2026-04-30 13:44 23.86982 117.23814 36156 ft 477 kts 225°
2026-04-30 13:44 23.81949 117.18930 36152 ft 477 kts 225°
2026-04-30 13:45 23.74663 117.11517 36150 ft 475 kts 230°
2026-04-30 13:46 23.70096 117.06312 36149 ft 475 kts 230°
2026-04-30 13:46 23.65496 117.01073 36150 ft 475 kts 230°
2026-04-30 13:47 23.60869 116.95812 36144 ft 476 kts 230°
2026-04-30 13:47 23.56285 116.90605 36152 ft 476 kts 230°
2026-04-30 13:48 23.51641 116.85335 36146 ft 476 kts 230°
2026-04-30 13:48 23.47035 116.80124 36148 ft 476 kts 229°
2026-04-30 13:49 23.42120 116.75201 36148 ft 479 kts 223°
2026-04-30 13:49 23.36845 116.70719 36148 ft 480 kts 221°
2026-04-30 13:50 23.31520 116.66291 36146 ft 480 kts 221°
2026-04-30 13:50 23.23541 116.59669 36145 ft 480 kts 221°
2026-04-30 13:51 23.18162 116.55209 36145 ft 480 kts 221°
2026-04-30 13:51 23.12822 116.50786 36144 ft 481 kts 221°
2026-04-30 13:52 23.07454 116.46346 36144 ft 481 kts 221°
2026-04-30 13:52 23.02238 116.41769 36142 ft 477 kts 228°
2026-04-30 13:53 22.98075 116.36240 36143 ft 471 kts 240°
2026-04-30 13:53 22.95185 116.29810 36145 ft 468 kts 252°
2026-04-30 13:54 22.93728 116.22935 36142 ft 467 kts 263°
2026-04-30 13:54 22.92969 116.15905 36148 ft 467 kts 264°
2026-04-30 13:55 22.92245 116.08903 36149 ft 467 kts 264°
2026-04-30 13:55 22.91518 116.01860 36149 ft 466 kts 264°
2026-04-30 13:56 22.90783 115.94814 36151 ft 466 kts 264°
2026-04-30 13:56 22.90049 115.87837 36147 ft 467 kts 264°
2026-04-30 13:57 22.89331 115.80785 36150 ft 467 kts 264°
2026-04-30 13:57 22.88622 115.73805 36145 ft 468 kts 264°
2026-04-30 13:58 22.87545 115.63190 36152 ft 468 kts 264°
2026-04-30 13:59 22.86828 115.56135 36153 ft 468 kts 264°
2026-04-30 13:59 22.86107 115.49068 36158 ft 469 kts 264°
2026-04-30 14:00 22.85382 115.41986 36157 ft 469 kts 264°
2026-04-30 14:00 22.84288 115.31365 36149 ft 470 kts 264°
2026-04-30 14:01 22.83560 115.24316 36149 ft 470 kts 264°
2026-04-30 14:01 22.82817 115.17159 36145 ft 470 kts 264°
2026-04-30 14:02 22.82077 115.10072 36150 ft 471 kts 263°
2026-04-30 14:02 22.81328 115.02952 36152 ft 471 kts 264°
2026-04-30 14:03 22.80578 114.95840 36149 ft 471 kts 263°
2026-04-30 14:03 22.79828 114.88766 36150 ft 471 kts 263°
2026-04-30 14:04 22.79074 114.81709 36147 ft 472 kts 263°
2026-04-30 14:04 22.78310 114.74551 36140 ft 472 kts 264°
2026-04-30 14:05 22.77591 114.67498 36140 ft 472 kts 264°
2026-04-30 14:05 22.76864 114.60324 36139 ft 472 kts 264°
2026-04-30 14:06 22.75773 114.49663 36139 ft 473 kts 264°
2026-04-30 14:07 22.74689 114.39018 36137 ft 473 kts 264°
2026-04-30 14:08 22.73588 114.28324 36135 ft 473 kts 264°
2026-04-30 14:08 22.72474 114.17592 36133 ft 474 kts 264°
2026-04-30 14:09 22.71279 114.10554 36128 ft 475 kts 255°
2026-04-30 14:10 22.67352 114.00579 36131 ft 478 kts 240°
2026-04-30 14:10 22.63408 113.94672 36131 ft 480 kts 231°
2026-04-30 14:11 22.58875 113.89312 36134 ft 481 kts 229°
2026-04-30 14:11 22.54265 113.83956 36132 ft 480 kts 229°
2026-04-30 14:12 22.49720 113.78670 36131 ft 480 kts 229°
2026-04-30 14:12 22.45145 113.73348 36132 ft 479 kts 230°
2026-04-30 14:13 22.40598 113.68059 36133 ft 479 kts 230°
2026-04-30 14:13 22.36011 113.62730 36130 ft 479 kts 230°
2026-04-30 14:14 22.31441 113.57427 36129 ft 479 kts 229°
2026-04-30 14:14 22.27058 113.51997 36127 ft 478 kts 234°
2026-04-30 14:15 22.23199 113.46137 36130 ft 476 kts 239°
2026-04-30 14:15 22.19908 113.39877 36132 ft 475 kts 245°
2026-04-30 14:16 22.17236 113.33350 36132 ft 474 kts 249°
2026-04-30 14:16 22.14764 113.26652 36124 ft 474 kts 249°
2026-04-30 14:17 22.12157 113.20074 36121 ft 474 kts 247°
2026-04-30 14:17 22.09427 113.13501 36116 ft 474 kts 247°
2026-04-30 14:18 22.06710 113.06990 36111 ft 474 kts 247°
2026-04-30 14:18 22.02663 112.97186 36110 ft 474 kts 248°
2026-04-30 14:19 21.98825 112.87251 36109 ft 475 kts 248°
2026-04-30 14:20 21.96232 112.80614 36106 ft 478 kts 248°
2026-04-30 14:20 21.92246 112.70714 36111 ft 481 kts 248°
2026-04-30 14:21 21.89543 112.64047 36109 ft 482 kts 248°
2026-04-30 14:22 21.85465 112.54064 36108 ft 483 kts 248°
2026-04-30 14:22 21.81481 112.44025 36108 ft 482 kts 248°
2026-04-30 14:23 21.76170 112.30630 36106 ft 484 kts 248°
2026-04-30 14:24 21.72161 112.20536 36109 ft 484 kts 248°
2026-04-30 14:25 21.66850 112.07237 36108 ft 479 kts 248°
2026-04-30 14:26 21.62886 111.97346 36103 ft 479 kts 248°
2026-04-30 14:27 21.58684 111.87542 36104 ft 480 kts 243°
2026-04-30 14:27 21.55236 111.81330 36107 ft 481 kts 238°
2026-04-30 14:28 21.49082 111.72722 36106 ft 483 kts 232°
2026-04-30 14:28 21.44715 111.67226 36105 ft 483 kts 232°
2026-04-30 14:29 21.36704 111.57163 36105 ft 482 kts 232°
2026-04-30 14:31 21.25053 111.42556 36106 ft 481 kts 232°
2026-04-30 14:31 21.18492 111.34346 36107 ft 480 kts 231°
2026-04-30 14:32 21.11971 111.26166 36106 ft 480 kts 232°
2026-04-30 14:33 21.07619 111.20732 36107 ft 480 kts 231°
2026-04-30 14:33 21.01052 111.12559 36110 ft 478 kts 231°
2026-04-30 14:34 20.96466 111.07339 36107 ft 479 kts 226°
2026-04-30 14:34 20.91438 111.02608 36116 ft 481 kts 221°
2026-04-30 14:35 20.83246 110.96240 36126 ft 482 kts 218°
2026-04-30 14:36 20.77762 110.92069 36123 ft 482 kts 218°
2026-04-30 14:36 20.72238 110.87862 36126 ft 482 kts 218°
2026-04-30 14:37 20.66785 110.83709 36122 ft 483 kts 218°
2026-04-30 14:37 20.61246 110.79491 36119 ft 483 kts 218°
2026-04-30 14:38 20.55733 110.75299 36116 ft 483 kts 218°
2026-04-30 14:38 20.50230 110.71117 36116 ft 483 kts 218°
2026-04-30 14:39 20.44770 110.66971 36111 ft 482 kts 218°
2026-04-30 14:39 20.39289 110.62813 36111 ft 482 kts 218°
2026-04-30 14:40 20.31030 110.56554 36112 ft 483 kts 218°
2026-04-30 14:40 20.25533 110.52392 36109 ft 482 kts 218°
2026-04-30 14:41 20.20038 110.48235 36110 ft 482 kts 218°
2026-04-30 14:41 20.14558 110.44093 36109 ft 482 kts 218°
2026-04-30 14:42 20.09039 110.39926 36110 ft 482 kts 218°
2026-04-30 14:42 20.03571 110.35802 36112 ft 482 kts 218°
2026-04-30 14:43 19.98072 110.31640 36103 ft 476 kts 218°
2026-04-30 14:43 19.95371 110.29594 35898 ft 474 kts 218°
2026-04-30 14:43 19.92650 110.27536 35159 ft 473 kts 218°
2026-04-30 14:44 19.89965 110.25509 34452 ft 473 kts 218°
2026-04-30 14:44 19.87266 110.23482 33741 ft 476 kts 218°
2026-04-30 14:44 19.84536 110.21440 33041 ft 478 kts 218°
2026-04-30 14:44 19.81767 110.19369 32369 ft 480 kts 218°
2026-04-30 14:45 19.79028 110.17318 31671 ft 480 kts 218°
2026-04-30 14:45 19.76293 110.15269 30972 ft 481 kts 218°
2026-04-30 14:45 19.73560 110.13218 30286 ft 481 kts 218°
2026-04-30 14:45 19.70918 110.11237 29809 ft 481 kts 218°
2026-04-30 14:46 19.65424 110.07117 29807 ft 482 kts 218°
2026-04-30 14:46 19.60836 110.03681 29805 ft 482 kts 218°
2026-04-30 14:47 19.54396 109.98862 29805 ft 482 kts 218°
2026-04-30 14:47 19.48846 109.94713 29805 ft 482 kts 218°
2026-04-30 14:48 19.43334 109.90595 29804 ft 482 kts 218°
2026-04-30 14:48 19.37816 109.86478 29805 ft 483 kts 218°
2026-04-30 14:49 19.32257 109.82334 29803 ft 483 kts 218°
2026-04-30 14:49 19.26713 109.78289 29789 ft 471 kts 215°
2026-04-30 14:50 19.21014 109.74995 28952 ft 461 kts 208°
2026-04-30 14:50 19.18117 109.73585 28322 ft 459 kts 208°
2026-04-30 14:51 19.12216 109.70740 27025 ft 466 kts 207°
2026-04-30 14:51 19.09216 109.69297 26378 ft 469 kts 207°
2026-04-30 14:51 19.03304 109.66456 25069 ft 463 kts 207°
2026-04-30 14:52 19.00330 109.65026 24400 ft 460 kts 207°
2026-04-30 14:52 18.94482 109.62214 23090 ft 455 kts 207°
2026-04-30 14:52 18.91588 109.60824 22448 ft 453 kts 207°
2026-04-30 14:53 18.85869 109.58086 21167 ft 448 kts 207°
2026-04-30 14:53 18.83043 109.56737 20377 ft 436 kts 207°
2026-04-30 14:54 18.77761 109.54217 18867 ft 395 kts 207°
2026-04-30 14:54 18.72903 109.51888 17354 ft 373 kts 207°
2026-04-30 14:55 18.68275 109.49669 15858 ft 356 kts 207°
2026-04-30 14:55 18.66031 109.48594 15099 ft 350 kts 207°
2026-04-30 14:55 18.61593 109.46465 13587 ft 356 kts 207°
2026-04-30 14:56 18.56957 109.44240 12029 ft 366 kts 206°
2026-04-30 14:56 18.52551 109.42137 10944 ft 324 kts 206°
2026-04-30 14:57 18.50543 109.41179 10780 ft 299 kts 206°
2026-04-30 14:57 18.47496 109.38717 10579 ft 261 kts 231°
2026-04-30 14:58 18.45194 109.35699 9671 ft 258 kts 232°
2026-04-30 14:58 18.44090 109.34241 9250 ft 253 kts 232°
2026-04-30 14:58 18.41901 109.31364 8384 ft 246 kts 231°
2026-04-30 14:59 18.39772 109.28597 7513 ft 240 kts 231°
2026-04-30 15:00 18.38115 109.23804 6212 ft 233 kts 262°
2026-04-30 15:00 18.37702 109.20417 5336 ft 231 kts 262°
2026-04-30 15:01 18.36728 109.17291 4413 ft 228 kts 217°
2026-04-30 15:01 18.35833 109.16731 4175 ft 223 kts 195°
2026-04-30 15:01 18.32324 109.16924 3726 ft 213 kts 170°
2026-04-30 15:02 18.30855 109.17156 3532 ft 211 kts 170°
2026-04-30 15:02 18.29393 109.17392 3334 ft 208 kts 164°
2026-04-30 15:03 18.27594 109.20785 2995 ft 186 kts 85°
2026-04-30 15:03 18.27979 109.23513 2940 ft 188 kts 82°
2026-04-30 15:04 18.28359 109.26217 2485 ft 184 kts 83°
2026-04-30 15:04 18.28868 109.30200 1778 ft 178 kts 83°
2026-04-30 15:05 18.29347 109.33926 1124 ft 167 kts 83°
2026-04-30 15:06 18.29655 109.36302 695 ft 152 kts 82°
2026-04-30 15:06 18.29924 109.38379 336 ft 140 kts 82°
2026-04-30 15:07 18.30210 109.40417 85 ft 138 kts 80°